Year,Month,Day,Hour,Minute,Value (Times are PST for temperature in C)
2010,01,19,00,01,8.10
2010,01,19,00,02,8.10
2010,01,19,00,03,8.10
2010,01,19,00,05,8.10
2010,01,19,00,06,8.10
2010,01,19,00,07,8.10
2010,01,19,00,08,8.10
2010,01,19,00,10,8.10
2010,01,19,00,11,8.10
2010,01,19,00,12,8.00
2010,01,19,00,13,8.00
2010,01,19,00,14,8.00
2010,01,19,00,15,8.00
2010,01,19,00,17,8.00
2010,01,19,00,18,8.00
2010,01,19,00,20,8.00
2010,01,19,00,22,7.90
2010,01,19,00,23,7.90
2010,01,19,00,24,7.90
2010,01,19,00,25,7.90
2010,01,19,00,26,7.90
2010,01,19,00,27,7.90
2010,01,19,00,29,7.90
2010,01,19,00,30,7.90
2010,01,19,00,31,7.90
2010,01,19,00,32,7.90
2010,01,19,00,33,7.80
2010,01,19,00,34,7.80
2010,01,19,00,36,7.80
2010,01,19,00,37,7.80
2010,01,19,00,38,7.80
2010,01,19,00,39,7.80
2010,01,19,00,42,7.80
2010,01,19,00,43,7.90
2010,01,19,00,44,7.90
2010,01,19,00,45,7.90
2010,01,19,00,47,7.90
2010,01,19,00,48,7.90
2010,01,19,00,50,7.90
2010,01,19,00,51,7.90
2010,01,19,00,53,7.90
2010,01,19,00,54,7.90
2010,01,19,00,55,7.90
2010,01,19,00,56,7.80
2010,01,19,00,58,7.80
2010,01,19,00,59,7.80
2010,01,19,01,00,7.80
2010,01,19,01,01,7.80
2010,01,19,01,02,7.80
2010,01,19,01,04,7.80
2010,01,19,01,05,7.70
2010,01,19,01,06,7.70
2010,01,19,01,07,7.70
2010,01,19,01,08,7.70
2010,01,19,01,09,7.70
2010,01,19,01,11,7.70
2010,01,19,01,12,7.70
2010,01,19,01,13,7.70
2010,01,19,01,14,7.70
2010,01,19,01,16,7.70
2010,01,19,01,17,7.70
2010,01,19,01,18,7.70
2010,01,19,01,19,7.70
2010,01,19,01,21,7.70
2010,01,19,01,22,7.70
2010,01,19,01,23,7.70
2010,01,19,01,24,7.70
2010,01,19,01,26,7.70
2010,01,19,01,27,7.70
2010,01,19,01,28,7.60
2010,01,19,01,29,7.60
2010,01,19,01,31,7.60
2010,01,19,01,33,7.60
2010,01,19,01,34,7.60
2010,01,19,01,35,7.50
2010,01,19,01,36,7.50
2010,01,19,01,38,7.40
2010,01,19,01,40,7.40
2010,01,19,01,41,7.40
2010,01,19,01,43,7.50
2010,01,19,01,44,7.50
2010,01,19,01,45,7.50
2010,01,19,01,46,7.50
2010,01,19,01,48,7.50
2010,01,19,01,50,7.50
2010,01,19,01,51,7.50
2010,01,19,01,53,7.50
2010,01,19,01,54,7.50
2010,01,19,01,55,7.50
2010,01,19,01,56,7.50
2010,01,19,01,58,7.50
2010,01,19,01,59,7.50
2010,01,19,02,00,7.50
2010,01,19,02,01,7.50
2010,01,19,02,02,7.50
2010,01,19,02,04,7.50
2010,01,19,02,05,7.50
2010,01,19,02,06,7.60
2010,01,19,02,07,7.50
2010,01,19,02,09,7.50
2010,01,19,02,10,7.50
2010,01,19,02,11,7.50
2010,01,19,02,12,7.50
2010,01,19,02,13,7.50
2010,01,19,02,15,7.50
2010,01,19,02,16,7.50
2010,01,19,02,17,7.50
2010,01,19,02,18,7.50
2010,01,19,02,19,7.40
2010,01,19,02,22,7.40
2010,01,19,02,23,7.50
2010,01,19,02,24,7.50
2010,01,19,02,25,7.50
2010,01,19,02,27,7.50
2010,01,19,02,28,7.50
2010,01,19,02,30,7.50
2010,01,19,02,31,7.40
2010,01,19,02,32,7.40
2010,01,19,02,33,7.40
2010,01,19,02,34,7.30
2010,01,19,02,36,7.30
2010,01,19,02,37,7.20
2010,01,19,02,38,7.20
2010,01,19,02,40,7.10
2010,01,19,02,42,7.10
2010,01,19,02,43,7.10
2010,01,19,02,44,7.10
2010,01,19,02,45,7.10
2010,01,19,02,47,7.00
2010,01,19,02,48,7.10
2010,01,19,02,50,7.10
2010,01,19,02,52,7.10
2010,01,19,02,53,7.10
2010,01,19,02,54,7.10
2010,01,19,02,55,7.10
2010,01,19,02,57,7.10
2010,01,19,02,58,7.20
2010,01,19,03,00,7.20
2010,01,19,03,02,7.30
2010,01,19,03,03,7.30
2010,01,19,03,04,7.30
2010,01,19,03,05,7.30
2010,01,19,03,07,7.30
2010,01,19,03,08,7.40
2010,01,19,03,10,7.40
2010,01,19,03,11,7.50
2010,01,19,03,12,7.50
2010,01,19,03,14,7.60
2010,01,19,03,15,7.60
2010,01,19,03,16,7.60
2010,01,19,03,18,7.60
2010,01,19,03,19,7.60
2010,01,19,03,20,7.60
2010,01,19,03,21,7.60
2010,01,19,03,22,7.60
2010,01,19,03,24,7.60
2010,01,19,03,25,7.60
2010,01,19,03,26,7.50
2010,01,19,03,27,7.50
2010,01,19,03,28,7.50
2010,01,19,03,30,7.50
2010,01,19,03,31,7.50
2010,01,19,03,32,7.50
2010,01,19,03,33,7.60
2010,01,19,03,34,7.60
2010,01,19,03,36,7.60
2010,01,19,03,37,7.60
2010,01,19,03,38,7.60
2010,01,19,03,39,7.60
2010,01,19,03,42,7.60
2010,01,19,03,43,7.60
2010,01,19,03,44,7.60
2010,01,19,03,45,7.60
2010,01,19,03,47,7.60
2010,01,19,03,48,7.50
2010,01,19,03,50,7.40
2010,01,19,03,51,7.40
2010,01,19,03,53,7.40
2010,01,19,03,54,7.40
2010,01,19,03,55,7.40
2010,01,19,03,56,7.40
2010,01,19,03,58,7.40
2010,01,19,03,59,7.40
2010,01,19,04,00,7.40
2010,01,19,04,01,7.40
2010,01,19,04,02,7.40
2010,01,19,04,04,7.40
2010,01,19,04,05,7.30
2010,01,19,04,06,7.30
2010,01,19,04,07,7.30
2010,01,19,04,09,7.30
2010,01,19,04,10,7.30
2010,01,19,04,11,7.30
2010,01,19,04,12,7.40
2010,01,19,04,14,7.40
2010,01,19,04,15,7.50
2010,01,19,04,16,7.60
2010,01,19,04,17,7.60
2010,01,19,04,18,7.60
2010,01,19,04,20,7.70
2010,01,19,04,21,7.70
2010,01,19,04,22,7.70
2010,01,19,04,23,7.70
2010,01,19,04,24,7.70
2010,01,19,04,26,7.70
2010,01,19,04,27,7.80
2010,01,19,04,28,7.80
2010,01,19,04,30,7.90
2010,01,19,04,32,8.10
2010,01,19,04,33,8.10
2010,01,19,04,34,8.20
2010,01,19,04,35,8.30
2010,01,19,04,36,8.30
2010,01,19,04,38,8.30
2010,01,19,04,40,8.30
2010,01,19,04,41,8.30
2010,01,19,04,43,8.30
2010,01,19,04,44,8.30
2010,01,19,04,45,8.30
2010,01,19,04,46,8.40
2010,01,19,04,47,8.40
2010,01,19,04,49,8.40
2010,01,19,04,50,8.50
2010,01,19,04,51,8.60
2010,01,19,04,52,8.60
2010,01,19,04,54,8.60
2010,01,19,04,55,8.70
2010,01,19,04,56,8.80
2010,01,19,04,57,8.80
2010,01,19,04,59,8.80
2010,01,19,05,00,8.90
2010,01,19,05,01,9.00
2010,01,19,05,02,9.00
2010,01,19,05,04,9.00
2010,01,19,05,05,9.10
2010,01,19,05,06,9.10
2010,01,19,05,07,9.10
2010,01,19,05,09,9.10
2010,01,19,05,10,9.20
2010,01,19,05,11,9.20
2010,01,19,05,12,9.20
2010,01,19,05,13,9.20
2010,01,19,05,15,9.30
2010,01,19,05,16,9.30
2010,01,19,05,17,9.40
2010,01,19,05,18,9.40
2010,01,19,05,20,9.40
2010,01,19,05,21,9.40
2010,01,19,05,22,9.50
2010,01,19,05,23,9.50
2010,01,19,05,24,9.60
2010,01,19,05,26,9.60
2010,01,19,05,27,9.60
2010,01,19,05,28,9.70
2010,01,19,05,29,9.80
2010,01,19,05,31,9.80
2010,01,19,05,33,9.80
2010,01,19,05,34,9.80
2010,01,19,05,35,9.90
2010,01,19,05,36,9.90
2010,01,19,05,37,9.90
2010,01,19,05,39,9.90
2010,01,19,05,40,9.80
2010,01,19,05,41,9.80
2010,01,19,05,42,9.70
2010,01,19,05,44,9.70
2010,01,19,05,45,9.60
2010,01,19,05,46,9.60
2010,01,19,05,47,9.60
2010,01,19,05,48,9.60
2010,01,19,05,49,9.50
2010,01,19,05,51,9.50
2010,01,19,05,52,9.50
2010,01,19,05,53,9.50
2010,01,19,05,54,9.50
2010,01,19,05,56,9.50
2010,01,19,05,57,9.50
2010,01,19,05,58,9.50
2010,01,19,05,59,9.50
2010,01,19,06,02,9.60
2010,01,19,06,03,9.60
2010,01,19,06,04,9.60
2010,01,19,06,05,9.60
2010,01,19,06,07,9.60
2010,01,19,06,08,9.60
2010,01,19,06,10,9.60
2010,01,19,06,11,9.70
2010,01,19,06,13,9.70
2010,01,19,06,14,9.70
2010,01,19,06,15,9.70
2010,01,19,06,16,9.70
2010,01,19,06,18,9.70
2010,01,19,06,20,9.70
2010,01,19,06,21,9.70
2010,01,19,06,23,9.70
2010,01,19,06,24,9.70
2010,01,19,06,25,9.60
2010,01,19,06,26,9.60
2010,01,19,06,28,9.60
2010,01,19,06,30,9.60
2010,01,19,06,31,9.50
2010,01,19,06,32,9.50
2010,01,19,06,33,9.40
2010,01,19,06,35,9.40
2010,01,19,06,36,9.40
2010,01,19,06,37,9.30
2010,01,19,06,38,9.30
2010,01,19,06,39,9.30
2010,01,19,06,42,9.40
2010,01,19,06,43,9.40
2010,01,19,06,44,9.40
2010,01,19,06,45,9.40
2010,01,19,06,47,9.40
2010,01,19,06,48,9.50
2010,01,19,06,50,9.60
2010,01,19,06,51,9.60
2010,01,19,06,53,9.60
2010,01,19,06,54,9.70
2010,01,19,06,55,9.70
2010,01,19,06,56,9.80
2010,01,19,06,58,9.80
2010,01,19,07,00,9.90
2010,01,19,07,03,9.90
2010,01,19,07,04,9.90
2010,01,19,07,05,9.90
2010,01,19,07,06,9.90
2010,01,19,07,07,9.90
2010,01,19,07,08,9.90
2010,01,19,07,10,9.90
2010,01,19,07,11,9.90
2010,01,19,07,12,9.90
2010,01,19,07,13,9.90
2010,01,19,07,14,9.90
2010,01,19,07,16,9.90
2010,01,19,07,17,9.90
2010,01,19,07,18,9.90
2010,01,19,07,19,10.00
2010,01,19,07,22,10.00
2010,01,19,07,23,10.00
2010,01,19,07,24,10.00
2010,01,19,07,25,10.00
2010,01,19,07,27,10.00
2010,01,19,07,28,10.00
2010,01,19,07,30,10.10
2010,01,19,07,31,10.10
2010,01,19,07,32,10.10
2010,01,19,07,34,10.10
2010,01,19,07,35,10.00
2010,01,19,07,36,10.00
2010,01,19,07,37,9.90
2010,01,19,07,39,9.90
2010,01,19,07,40,9.90
2010,01,19,07,41,9.90
2010,01,19,07,42,9.90
2010,01,19,07,44,9.90
2010,01,19,07,45,9.90
2010,01,19,07,46,9.90
2010,01,19,07,47,9.90
2010,01,19,07,49,9.90
2010,01,19,07,50,9.90
2010,01,19,07,51,9.90
2010,01,19,07,52,9.90
2010,01,19,07,54,9.90
2010,01,19,07,55,9.90
2010,01,19,07,56,9.90
2010,01,19,07,57,9.90
2010,01,19,07,58,9.90
2010,01,19,08,00,9.90
2010,01,19,08,02,9.90
2010,01,19,08,03,9.90
2010,01,19,08,04,9.80
2010,01,19,08,06,9.80
2010,01,19,08,07,9.90
2010,01,19,08,08,9.80
2010,01,19,08,09,9.80
2010,01,19,08,11,9.80
2010,01,19,08,12,9.80
2010,01,19,08,13,9.80
2010,01,19,08,14,9.80
2010,01,19,08,16,9.70
2010,01,19,08,17,9.70
2010,01,19,08,18,9.70
2010,01,19,08,19,9.70
2010,01,19,08,21,9.60
2010,01,19,08,22,9.60
2010,01,19,08,23,9.60
2010,01,19,08,24,9.60
2010,01,19,08,26,9.60
2010,01,19,08,27,9.60
2010,01,19,08,28,9.60
2010,01,19,08,30,9.60
2010,01,19,08,31,9.60
2010,01,19,08,33,9.60
2010,01,19,08,34,9.60
2010,01,19,08,35,9.60
2010,01,19,08,36,9.60
2010,01,19,08,37,9.60
2010,01,19,08,39,9.70
2010,01,19,08,40,9.70
2010,01,19,08,41,9.70
2010,01,19,08,42,9.70
2010,01,19,08,43,9.80
2010,01,19,08,45,9.80
2010,01,19,08,46,9.90
2010,01,19,08,47,9.90
2010,01,19,08,48,10.00
2010,01,19,08,50,10.10
2010,01,19,08,51,10.10
2010,01,19,08,52,10.20
2010,01,19,08,53,10.20
2010,01,19,08,54,10.20
2010,01,19,08,55,10.20
2010,01,19,08,57,10.20
2010,01,19,08,58,10.30
2010,01,19,09,00,10.30
2010,01,19,09,03,10.30
2010,01,19,09,04,10.30
2010,01,19,09,05,10.30
2010,01,19,09,06,10.30
2010,01,19,09,08,10.30
2010,01,19,09,10,10.30
2010,01,19,09,11,10.20
2010,01,19,09,13,10.20
2010,01,19,09,14,10.20
2010,01,19,09,15,10.10
2010,01,19,09,16,10.10
2010,01,19,09,17,10.10
2010,01,19,09,19,10.10
2010,01,19,09,20,10.10
2010,01,19,09,21,10.10
2010,01,19,09,22,10.10
2010,01,19,09,24,10.10
2010,01,19,09,25,10.10
2010,01,19,09,26,10.10
2010,01,19,09,27,10.10
2010,01,19,09,28,10.10
2010,01,19,09,30,10.10
2010,01,19,09,32,10.20
2010,01,19,09,33,10.20
2010,01,19,09,34,10.20
2010,01,19,09,35,10.20
2010,01,19,09,37,10.20
2010,01,19,09,38,10.20
2010,01,19,09,40,10.20
2010,01,19,09,41,10.20
2010,01,19,09,43,10.20
2010,01,19,09,44,10.20
2010,01,19,09,45,10.30
2010,01,19,09,46,10.30
2010,01,19,09,47,10.30
2010,01,19,09,48,10.30
2010,01,19,09,50,10.30
2010,01,19,09,51,10.30
2010,01,19,09,52,10.30
2010,01,19,09,54,10.30
2010,01,19,09,55,10.30
2010,01,19,09,56,10.30
2010,01,19,09,57,10.30
2010,01,19,09,59,10.20
2010,01,19,10,00,10.20
2010,01,19,10,01,10.20
2010,01,19,10,02,10.20
2010,01,19,10,03,10.20
2010,01,19,10,05,10.30
2010,01,19,10,06,10.30
2010,01,19,10,07,10.30
2010,01,19,10,08,10.30
2010,01,19,10,10,10.40
2010,01,19,10,11,10.40
2010,01,19,10,12,10.40
2010,01,19,10,13,10.40
2010,01,19,10,14,10.40
2010,01,19,10,15,10.40
2010,01,19,10,17,10.40
2010,01,19,10,18,10.40
2010,01,19,10,20,10.50
2010,01,19,10,21,10.60
2010,01,19,10,23,10.60
2010,01,19,10,24,10.70
2010,01,19,10,25,10.80
2010,01,19,10,26,10.80
2010,01,19,10,28,10.80
2010,01,19,10,29,10.90
2010,01,19,10,30,10.90
2010,01,19,10,31,10.90
2010,01,19,10,32,11.00
2010,01,19,10,33,11.10
2010,01,19,10,35,11.10
2010,01,19,10,36,11.20
2010,01,19,10,37,11.20
2010,01,19,10,38,11.20
2010,01,19,10,40,11.20
2010,01,19,10,42,11.20
2010,01,19,10,43,11.30
2010,01,19,10,44,11.30
2010,01,19,10,45,11.30
2010,01,19,10,47,11.30
2010,01,19,10,48,11.30
2010,01,19,10,50,11.30
2010,01,19,10,51,11.30
2010,01,19,10,53,11.30
2010,01,19,10,54,11.40
2010,01,19,10,55,11.40
2010,01,19,10,56,11.40
2010,01,19,10,58,11.40
2010,01,19,11,00,11.40
2010,01,19,11,01,11.40
2010,01,19,11,03,11.40
2010,01,19,11,04,11.40
2010,01,19,11,05,11.40
2010,01,19,11,06,11.40
2010,01,19,11,07,11.40
2010,01,19,11,08,11.40
2010,01,19,11,10,11.50
2010,01,19,11,11,11.60
2010,01,19,11,12,11.60
2010,01,19,11,13,11.60
2010,01,19,11,15,11.70
2010,01,19,11,16,11.70
2010,01,19,11,17,11.80
2010,01,19,11,18,11.80
2010,01,19,11,20,11.90
2010,01,19,11,22,11.90
2010,01,19,11,23,11.90
2010,01,19,11,24,12.00
2010,01,19,11,25,12.00
2010,01,19,11,27,12.00
2010,01,19,11,28,12.00
2010,01,19,11,30,11.90
2010,01,19,11,31,11.90
2010,01,19,11,32,11.90
2010,01,19,11,33,11.80
2010,01,19,11,35,11.80
2010,01,19,11,36,11.80
2010,01,19,11,37,11.80
2010,01,19,11,38,11.80
2010,01,19,11,39,11.80
2010,01,19,11,41,11.80
2010,01,19,11,42,11.80
2010,01,19,11,43,11.80
2010,01,19,11,44,11.80
2010,01,19,11,46,11.80
2010,01,19,11,47,11.80
2010,01,19,11,48,11.90
2010,01,19,11,50,11.90
2010,01,19,11,51,12.00
2010,01,19,11,52,12.00
2010,01,19,11,53,12.10
2010,01,19,11,54,12.10
2010,01,19,11,56,12.20
2010,01,19,11,57,12.20
2010,01,19,11,58,12.20
2010,01,19,11,59,12.20
2010,01,19,12,01,12.30
2010,01,19,12,02,12.30
2010,01,19,12,03,12.30
2010,01,19,12,05,12.30
2010,01,19,12,06,12.40
2010,01,19,12,07,12.40
2010,01,19,12,08,12.50
2010,01,19,12,10,12.60
2010,01,19,12,11,12.60
2010,01,19,12,12,12.70
2010,01,19,12,13,12.70
2010,01,19,12,14,12.70
2010,01,19,12,15,12.80
2010,01,19,12,17,12.70
2010,01,19,12,18,12.70
2010,01,19,12,20,12.70
2010,01,19,12,22,12.80
2010,01,19,12,23,12.80
2010,01,19,12,24,12.80
2010,01,19,12,25,12.70
2010,01,19,12,27,12.70
2010,01,19,12,28,12.70
2010,01,19,12,30,12.70
2010,01,19,12,31,12.60
2010,01,19,12,32,12.60
2010,01,19,12,34,12.60
2010,01,19,12,35,12.60
2010,01,19,12,36,12.50
2010,01,19,12,37,12.50
2010,01,19,12,38,12.50
2010,01,19,12,40,12.50
2010,01,19,12,41,12.50
2010,01,19,12,42,12.50
2010,01,19,12,43,12.50
2010,01,19,12,44,12.40
2010,01,19,12,46,12.40
2010,01,19,12,47,12.40
2010,01,19,12,48,12.40
2010,01,19,12,50,12.40
2010,01,19,12,52,12.40
2010,01,19,12,53,12.50
2010,01,19,12,54,12.50
2010,01,19,12,55,12.50
2010,01,19,12,56,12.50
2010,01,19,12,58,12.50
2010,01,19,13,00,12.50
2010,01,19,13,01,12.50
2010,01,19,13,03,12.40
2010,01,19,13,04,12.40
2010,01,19,13,05,12.40
2010,01,19,13,06,12.40
2010,01,19,13,07,12.40
2010,01,19,13,09,12.40
2010,01,19,13,10,12.40
2010,01,19,13,11,12.40
2010,01,19,13,12,12.30
2010,01,19,13,14,12.30
2010,01,19,13,15,12.30
2010,01,19,13,16,12.30
2010,01,19,13,17,12.30
2010,01,19,13,18,12.30
2010,01,19,13,20,12.30
2010,01,19,13,21,12.30
2010,01,19,13,22,12.30
2010,01,19,13,23,12.30
2010,01,19,13,24,12.20
2010,01,19,13,25,12.20
2010,01,19,13,27,12.20
2010,01,19,13,28,12.20
2010,01,19,13,31,12.20
2010,01,19,13,33,12.20
2010,01,19,13,34,12.20
2010,01,19,13,36,12.20
2010,01,19,13,37,12.10
2010,01,19,13,38,12.10
2010,01,19,13,39,12.10
2010,01,19,13,42,12.10
2010,01,19,13,43,12.10
2010,01,19,13,44,12.10
2010,01,19,13,45,12.10
2010,01,19,13,46,12.10
2010,01,19,13,48,12.10
2010,01,19,13,49,12.10
2010,01,19,13,50,12.10
2010,01,19,13,51,12.10
2010,01,19,13,52,12.10
2010,01,19,13,54,12.10
2010,01,19,13,55,12.00
2010,01,19,13,56,12.00
2010,01,19,13,57,11.90
2010,01,19,13,58,11.90
2010,01,19,14,00,11.90
2010,01,19,14,02,11.90
2010,01,19,14,03,11.90
2010,01,19,14,04,11.90
2010,01,19,14,05,11.90
2010,01,19,14,07,11.90
2010,01,19,14,08,11.80
2010,01,19,14,10,11.90
2010,01,19,14,12,11.90
2010,01,19,14,13,11.90
2010,01,19,14,14,11.90
2010,01,19,14,15,11.90
2010,01,19,14,17,11.90
2010,01,19,14,18,11.80
2010,01,19,14,20,11.80
2010,01,19,14,21,11.80
2010,01,19,14,22,11.80
2010,01,19,14,24,11.80
2010,01,19,14,25,11.80
2010,01,19,14,26,11.80
2010,01,19,14,27,11.80
2010,01,19,14,29,11.80
2010,01,19,14,30,11.80
2010,01,19,14,32,11.80
2010,01,19,14,33,11.80
2010,01,19,14,35,11.80
2010,01,19,14,36,11.80
2010,01,19,14,37,11.80
2010,01,19,14,38,11.80
2010,01,19,14,39,11.80
2010,01,19,14,41,11.80
2010,01,19,14,42,11.80
2010,01,19,14,43,11.70
2010,01,19,14,44,11.70
2010,01,19,14,46,11.70
2010,01,19,14,47,11.70
2010,01,19,14,48,11.70
2010,01,19,14,49,11.70
2010,01,19,14,51,11.70
2010,01,19,14,52,11.60
2010,01,19,14,53,11.60
2010,01,19,14,54,11.60
2010,01,19,14,56,11.60
2010,01,19,14,57,11.60
2010,01,19,14,58,11.60
2010,01,19,14,59,11.60
2010,01,19,15,02,11.50
2010,01,19,15,03,11.50
2010,01,19,15,04,11.50
2010,01,19,15,06,11.50
2010,01,19,15,07,11.40
2010,01,19,15,08,11.40
2010,01,19,15,10,11.40
2010,01,19,15,12,11.30
2010,01,19,15,13,11.30
2010,01,19,15,14,11.30
2010,01,19,15,15,11.20
2010,01,19,15,16,11.20
2010,01,19,15,18,11.20
2010,01,19,15,19,11.20
2010,01,19,15,20,11.20
2010,01,19,15,21,11.20
2010,01,19,15,22,11.20
2010,01,19,15,23,11.20
2010,01,19,15,25,11.20
2010,01,19,15,26,11.20
2010,01,19,15,27,11.20
2010,01,19,15,28,11.10
2010,01,19,15,30,11.10
2010,01,19,15,32,11.10
2010,01,19,15,33,11.10
2010,01,19,15,34,11.10
2010,01,19,15,35,11.10
2010,01,19,15,37,11.10
2010,01,19,15,38,11.10
2010,01,19,15,41,11.00
2010,01,19,15,43,11.00
2010,01,19,15,44,11.00
2010,01,19,15,45,11.00
2010,01,19,15,46,11.00
2010,01,19,15,48,11.00
2010,01,19,15,49,11.00
2010,01,19,15,50,11.00
2010,01,19,15,51,11.00
2010,01,19,15,52,11.00
2010,01,19,15,54,11.00
2010,01,19,15,55,11.00
2010,01,19,15,56,10.90
2010,01,19,15,57,10.90
2010,01,19,15,58,10.90
2010,01,19,15,59,10.90
2010,01,19,16,02,10.90
2010,01,19,16,03,10.90
2010,01,19,16,04,10.90
2010,01,19,16,06,10.80
2010,01,19,16,07,10.80
2010,01,19,16,08,10.80
2010,01,19,16,09,10.80
2010,01,19,16,12,10.80
2010,01,19,16,13,10.80
2010,01,19,16,14,10.80
2010,01,19,16,15,10.70
2010,01,19,16,17,10.70
2010,01,19,16,18,10.70
2010,01,19,16,20,10.70
2010,01,19,16,22,10.60
2010,01,19,16,23,10.60
2010,01,19,16,24,10.60
2010,01,19,16,25,10.60
2010,01,19,16,26,10.60
2010,01,19,16,28,10.60
2010,01,19,16,29,10.60
2010,01,19,16,30,10.60
2010,01,19,16,32,10.60
2010,01,19,16,33,10.60
2010,01,19,16,34,10.60
2010,01,19,16,36,10.60
2010,01,19,16,37,10.60
2010,01,19,16,38,10.60
2010,01,19,16,40,10.60
2010,01,19,16,42,10.70
2010,01,19,16,43,10.60
2010,01,19,16,44,10.70
2010,01,19,16,45,10.70
2010,01,19,16,46,10.70
2010,01,19,16,48,10.70
2010,01,19,16,50,10.60
2010,01,19,16,51,10.60
2010,01,19,16,52,10.60
2010,01,19,16,54,10.60
2010,01,19,16,55,10.60
2010,01,19,16,56,10.60
2010,01,19,16,57,10.60
2010,01,19,16,58,10.70
2010,01,19,17,00,10.80
2010,01,19,17,02,10.90
2010,01,19,17,03,11.00
2010,01,19,17,04,11.00
2010,01,19,17,06,11.00
2010,01,19,17,07,11.10
2010,01,19,17,08,11.20
2010,01,19,17,10,11.30
2010,01,19,17,12,11.30
2010,01,19,17,13,11.30
2010,01,19,17,14,11.30
2010,01,19,17,15,11.30
2010,01,19,17,16,11.30
2010,01,19,17,17,11.30
2010,01,19,17,19,11.30
2010,01,19,17,20,11.30
2010,01,19,17,21,11.30
2010,01,19,17,22,11.30
2010,01,19,17,24,11.30
2010,01,19,17,25,11.30
2010,01,19,17,26,11.30
2010,01,19,17,27,11.30
2010,01,19,17,28,11.30
2010,01,19,17,29,11.30
2010,01,19,17,32,11.20
2010,01,19,17,33,11.20
2010,01,19,17,34,11.20
2010,01,19,17,35,11.20
2010,01,19,17,37,11.20
2010,01,19,17,38,11.20
2010,01,19,17,40,11.30
2010,01,19,17,41,11.30
2010,01,19,17,43,11.30
2010,01,19,17,44,11.30
2010,01,19,17,45,11.30
2010,01,19,17,46,11.30
2010,01,19,17,47,11.30
2010,01,19,17,49,11.30
2010,01,19,17,50,11.30
2010,01,19,17,51,11.30
2010,01,19,17,52,11.30
2010,01,19,17,53,11.20
2010,01,19,17,54,11.20
2010,01,19,17,56,11.20
2010,01,19,17,57,11.20
2010,01,19,17,58,11.10
2010,01,19,18,00,11.10
2010,01,19,18,01,11.10
2010,01,19,18,03,11.10
2010,01,19,18,04,11.10
2010,01,19,18,05,11.10
2010,01,19,18,06,11.00
2010,01,19,18,08,11.00
2010,01,19,18,09,10.90
2010,01,19,18,10,10.90
2010,01,19,18,11,10.90
2010,01,19,18,12,10.80
2010,01,19,18,14,10.80
2010,01,19,18,15,10.80
2010,01,19,18,16,10.70
2010,01,19,18,17,10.70
2010,01,19,18,19,10.70
2010,01,19,18,20,10.70
2010,01,19,18,21,10.70
2010,01,19,18,22,10.70
2010,01,19,18,23,10.60
2010,01,19,18,25,10.60
2010,01,19,18,26,10.60
2010,01,19,18,27,10.60
2010,01,19,18,28,10.60
2010,01,19,18,30,10.60
2010,01,19,18,32,10.60
2010,01,19,18,33,10.70
2010,01,19,18,34,10.70
2010,01,19,18,35,10.80
2010,01,19,18,36,10.80
2010,01,19,18,37,10.90
2010,01,19,18,39,11.00
2010,01,19,18,40,11.00
2010,01,19,18,41,11.10
2010,01,19,18,42,11.10
2010,01,19,18,44,11.00
2010,01,19,18,45,11.00
2010,01,19,18,46,11.10
2010,01,19,18,47,11.10
2010,01,19,18,49,11.10
2010,01,19,18,50,11.10
2010,01,19,18,51,11.10
2010,01,19,18,52,11.10
2010,01,19,18,54,11.10
2010,01,19,18,55,11.10
2010,01,19,18,56,11.10
2010,01,19,18,57,11.10
2010,01,19,18,58,11.10
2010,01,19,19,00,11.10
2010,01,19,19,01,11.10
2010,01,19,19,02,11.10
2010,01,19,19,03,11.10
2010,01,19,19,04,11.10
2010,01,19,19,06,11.00
2010,01,19,19,07,11.00
2010,01,19,19,08,11.00
2010,01,19,19,10,11.00
2010,01,19,19,11,11.00
2010,01,19,19,13,11.00
2010,01,19,19,14,11.00
2010,01,19,19,15,11.00
2010,01,19,19,16,11.00
2010,01,19,19,18,11.00
2010,01,19,19,20,10.90
2010,01,19,19,21,10.80
2010,01,19,19,23,10.70
2010,01,19,19,24,10.70
2010,01,19,19,25,10.60
2010,01,19,19,26,10.60
2010,01,19,19,27,10.60
2010,01,19,19,29,10.50
2010,01,19,19,30,10.40
2010,01,19,19,32,10.40
2010,01,19,19,33,10.30
2010,01,19,19,34,10.30
2010,01,19,19,35,10.30
2010,01,19,19,37,10.30
2010,01,19,19,38,10.30
2010,01,19,19,40,10.30
2010,01,19,19,42,10.30
2010,01,19,19,43,10.30
2010,01,19,19,44,10.30
2010,01,19,19,45,10.30
2010,01,19,19,47,10.30
2010,01,19,19,48,10.30
2010,01,19,19,50,10.40
2010,01,19,19,51,10.60
2010,01,19,19,53,10.60
2010,01,19,19,54,10.60
2010,01,19,19,55,10.60
2010,01,19,19,56,10.60
2010,01,19,19,58,10.60
2010,01,19,19,59,10.60
2010,01,19,20,00,10.70
2010,01,19,20,01,10.70
2010,01,19,20,02,10.70
2010,01,19,20,04,10.60
2010,01,19,20,05,10.60
2010,01,19,20,06,10.60
2010,01,19,20,07,10.70
2010,01,19,20,09,10.70
2010,01,19,20,10,10.70
2010,01,19,20,11,10.60
2010,01,19,20,12,10.60
2010,01,19,20,13,10.60
2010,01,19,20,14,10.60
2010,01,19,20,16,10.60
2010,01,19,20,17,10.60
2010,01,19,20,18,10.50
2010,01,19,20,20,10.40
2010,01,19,20,22,10.40
2010,01,19,20,23,10.40
2010,01,19,20,24,10.40
2010,01,19,20,25,10.40
2010,01,19,20,26,10.40
2010,01,19,20,28,10.30
2010,01,19,20,30,10.30
2010,01,19,20,31,10.20
2010,01,19,20,32,10.20
2010,01,19,20,33,10.10
2010,01,19,20,35,10.00
2010,01,19,20,36,9.90
2010,01,19,20,37,9.80
2010,01,19,20,38,9.70
2010,01,19,20,40,9.70
2010,01,19,20,41,9.60
2010,01,19,20,42,9.60
2010,01,19,20,43,9.60
2010,01,19,20,44,9.50
2010,01,19,20,46,9.50
2010,01,19,20,47,9.40
2010,01,19,20,48,9.40
2010,01,19,20,49,9.40
2010,01,19,20,51,9.40
2010,01,19,20,52,9.40
2010,01,19,20,53,9.40
2010,01,19,20,54,9.50
2010,01,19,20,56,9.40
2010,01,19,20,57,9.40
2010,01,19,20,58,9.40
2010,01,19,20,59,9.40
2010,01,19,21,01,9.40
2010,01,19,21,02,9.40
2010,01,19,21,03,9.40
2010,01,19,21,04,9.40
2010,01,19,21,05,9.40
2010,01,19,21,07,9.40
2010,01,19,21,08,9.40
2010,01,19,21,10,9.30
2010,01,19,21,12,9.30
2010,01,19,21,13,9.20
2010,01,19,21,14,9.30
2010,01,19,21,15,9.30
2010,01,19,21,17,9.30
2010,01,19,21,18,9.30
2010,01,19,21,20,9.40
2010,01,19,21,21,9.40
2010,01,19,21,23,9.50
2010,01,19,21,24,9.50
2010,01,19,21,25,9.60
2010,01,19,21,26,9.60
2010,01,19,21,27,9.60
2010,01,19,21,29,9.60
2010,01,19,21,30,9.60
2010,01,19,21,31,9.50
2010,01,19,21,32,9.40
2010,01,19,21,33,9.40
2010,01,19,21,35,9.40
2010,01,19,21,36,9.30
2010,01,19,21,37,9.30
2010,01,19,21,38,9.20
2010,01,19,21,40,9.20
2010,01,19,21,41,9.10
2010,01,19,21,42,9.10
2010,01,19,21,43,9.10
2010,01,19,21,44,9.00
2010,01,19,21,46,9.00
2010,01,19,21,47,8.90
2010,01,19,21,48,9.00
2010,01,19,21,49,9.00
2010,01,19,21,52,9.10
2010,01,19,21,53,9.10
2010,01,19,21,54,9.10
2010,01,19,21,55,9.10
2010,01,19,21,57,9.20
2010,01,19,21,58,9.20
2010,01,19,22,00,9.10
2010,01,19,22,01,9.10
2010,01,19,22,03,9.10
2010,01,19,22,04,9.10
2010,01,19,22,05,9.10
2010,01,19,22,06,9.20
2010,01,19,22,07,9.20
2010,01,19,22,08,9.30
2010,01,19,22,10,9.30
2010,01,19,22,11,9.30
2010,01,19,22,12,9.30
2010,01,19,22,13,9.30
2010,01,19,22,14,9.30
2010,01,19,22,16,9.30
2010,01,19,22,17,9.30
2010,01,19,22,18,9.30
2010,01,19,22,19,9.30
2010,01,19,22,22,9.20
2010,01,19,22,23,9.30
2010,01,19,22,24,9.30
2010,01,19,22,25,9.30
2010,01,19,22,27,9.20
2010,01,19,22,28,9.20
2010,01,19,22,31,9.20
2010,01,19,22,32,9.20
2010,01,19,22,34,9.20
2010,01,19,22,35,9.20
2010,01,19,22,36,9.20
2010,01,19,22,37,9.20
2010,01,19,22,38,9.20
2010,01,19,22,39,9.20
2010,01,19,22,41,9.10
2010,01,19,22,42,9.10
2010,01,19,22,43,9.10
2010,01,19,22,44,9.10
2010,01,19,22,46,9.10
2010,01,19,22,47,9.10
2010,01,19,22,48,9.10
2010,01,19,22,49,9.20
2010,01,19,22,52,9.20
2010,01,19,22,53,9.20
2010,01,19,22,54,9.20
2010,01,19,22,55,9.20
2010,01,19,22,57,9.10
2010,01,19,22,58,9.10
2010,01,19,23,00,9.20
2010,01,19,23,03,9.20
2010,01,19,23,04,9.20
2010,01,19,23,05,9.20
2010,01,19,23,06,9.30
2010,01,19,23,08,9.30
2010,01,19,23,10,9.30